Location: Tamazert
(32.6352°N, 5.2072°W)
Time: 07:15:38
(UTC+00:00)

CZ-2C R/B - Visible Passes

Search period start: 06 October 2022 00:00
Search period end: 16 October 2022 00:00
Orbit: 668 x 783 km, 98.3° (Epoch: 05 October)

Date Brightness Start Highest point End Pass type
(mag) Time Alt. Az. Time Alt. Az. Time Alt. Az.
06 Oct 4.4 03:39:52 10° NNE 03:41:28 21° NNE 03:41:28 21° NNE visible
07 Oct 4.1 04:30:12 10° N 04:31:48 19° NNW 04:31:48 19° NNW visible
08 Oct 4.5 03:41:29 10° NNE 03:42:46 18° NNE 03:42:46 18° NNE visible
09 Oct 4.3 04:31:50 10° N 04:33:05 16° NNW 04:33:05 16° NNW visible
10 Oct 4.7 03:43:03 10° NNE 03:44:03 16° NNE 03:44:03 16° NNE visible
11 Oct 4.4 04:33:28 10° NNW 04:34:21 14° NNW 04:34:21 14° NNW visible
12 Oct 4.8 03:44:38 10° NNE 03:45:19 14° NNE 03:45:19 14° NNE visible
13 Oct 4.5 04:35:06 10° NNW 04:35:38 13° NNW 04:35:38 13° NNW visible
14 Oct 4.9 03:46:13 10° NNE 03:46:35 12° NNE 03:46:35 12° NNE visible
15 Oct 4.7 04:36:43 10° NNW 04:36:53 11° NNW 04:36:53 11° NNW visible
